RAPTOR 2

operational
NORAD ID: 58959 Int'l Des: 2024-028 Owner: SDA Country: US
LEOCIRCULAR

关于 RAPTOR 2

正在加载描述...

实时位置

正在加载3D地球...

即将过境

高度历史

Altitude vs Time

uPlot chart will show altitude changes over time

两行轨道根数

1 58959U 24028E 26071.50334293 -.00000029 00000-0 54311-4 0 9997
2 58959 39.9900 127.2140 0011002 57.2992 302.8814 13.70548269103806
Epoch: Mar 12, 2026 • Age: 18 hours

当前状态

高度 1011.1 km
速度 7.34 km/s
星下点 -24.68°S, 107.32°W
发射日期 Feb 14, 2024
运行时间 2 years
类型 other

技术详情

分类 Payload
质量 1000.00 kg
干质量 1000.00 kg
总质量 1000.00 kg
长度 1.00 m
直径 0.60 m
跨度 2.00 m
形状 Box + panels
制造商 HARRL3
平台类型 TPL0-L3H
阶段状态 In Orbit
所有者/国家 SDA/US

大型星座

Loading constellations...